Weather in Skedsmo

Norway     59°57′23″N   11°03′02″E
temp.,
°C
wind,
m/s
gust,
m/s
humid.,
%
clouds,
%
prec.,
mm/h
press.,
hPa
HPBL,
m
8 august, mon
mon823:00+12sw018131 0.0 101832
02:00+9nw11935 0.0 101911
05:00+8n11955 0.0 102011
08:00+13ne127341 0.0 1021255
11:00+19ene11535 0.0 1022918
14:00+22e114218 0.0 10221561
17:00+20sse325287 0.0 10221295
20:00+17sw367088 0.0 1024398
9 august, tue
tue923:00+11ssw229053 0.0 102527
02:00+10ssw1197100 0.0 102614
05:00+10s1298100 0.0 102631
08:00+13s2489100 0.0 1026295
11:00+18ssw346338 0.0 1026968
14:00+21ssw455485 0.0 10251248
17:00+20ssw4458100 0.0 1024922
20:00+17ssw3777100 0.0 1023442
10 august, wed
wed1023:00+13ssw2498100 0.0 1024117
02:00+12sw1199100 0.0 102324
05:00+12sw1198100 0.0 102310
08:00+16sw127995 0.0 1022189
11:00+22sw354916 0.0 1021782
14:00+26sw353584 0.0 10191498
17:00+26ssw56385 0.0 10181127
20:00+21ssw38635 0.0 1018352
11 august, thu
thu1123:00+15sw119418 0.0 101818
02:00+14sw1193100 0.0 101811
05:00+14wsw118799 0.0 101811
08:00+18sw1167100 0.0 1019128
11:00+23sw244492 0.0 1018746
14:00+27sw353212 0.0 10171576
17:00+27ssw56330 0.0 10161350
20:00+21s26610 0.0 1016240
12 august, fri
fri1223:00+16sw11840 0.0 101712
02:00+14w11710 0.0 101711
05:00+13nnw11670 0.0 101911
08:00+17nne11545 0.0 1019143
11:00+23e113820 0.0 1019699
14:00+27s23315 0.0 10181613
17:00+27ssw33294 0.0 10171786
20:00+21ssw36575 0.0 1017313